Find Local Weather

World > North America > United States > Montana

Thompson Falls, Montana Regional Weather

Lat: 47.60N, Lon: 115.34W
Wx Zone: MTZ004
Feedback
Expires:201809221500;;037122
ASUS45 KTFX 221410
RWRMT 
MONTANA REGIONAL WEATHER ROUNDUP
NATIONAL WEATHER SERVICE GREAT FALLS MT
800 AM MDT SAT SEP 22 2018

NOTE: "FAIR" INDICATES FEW OR NO CLOUDS BELOW 12000 FEET WITH NO
SIGNIFICANT WEATHER AND/OR OBSTRUCTIONS TO VISIBILITY.


MTZ001>007-043-221500-
WEST OF THE DIVIDE
  
CITY           SKY/WX    TMP DP  RH WIND       PRES   REMARKS
KALISPELL      CLOUDY    46  45  96 CALM      29.89R                  
MISSOULA       FAIR      48  37  65 CALM      29.95R                  
BUTTE          FAIR      36  31  82 S5        30.05R                  
MULLAN PASS    CLOUDY    48  32  53 SW10G21   30.01R                  
ANACONDA         N/A     50  27  40 S7        30.00R                  
LIBBY            N/A     43  39  87 CALM      29.87R                  
RONAN            N/A     55  37  50 VRB3      29.93R                  
$$


SKY/WX - Weather  TMP - Temperature  DP - Dew Point  RH - Relative Humidity
WIND - Wind Direction/Speed PRES - Barometric Pressure